PROFILE

 METAR AND TAF INFORMATION
ADDS - METARS form results

(0054 UTC 20 February 2020)
http://aviationweather.gov/metar/data/
 
LIRA 200020Z 07005KT CAVOK 07/06 Q1020
TAF LIRA 192300Z 2000/2024 04006KT 7000 SCT030 TEMPO 2000/2006 4000 BR 

 AIRPORT MAP

 RUNWAY INFORMATION
Runway 15 Runway length 7242 ft Runway width 154 ft
Runway elevation 341 ft Runway displaced threshold 0 ft Runway heading 153
Runway 33 Runway length 7242 ft Runway width 154 ft
Runway elevation 427 ft Runway displaced threshold 0 ft Runway heading 333

 AIRPORT FREQUENCIES
Type ARR Name ROMA ARR Frequency 119.2 MHZ
Type CLD Name CLNC DEL Frequency 119.4 MHZ
Type DIR Name ROMA DIREC Frequency 119.2 MHZ
Type GND Name GND Frequency 121.75 MHZ
Type TWR Name TWR Frequency 120.5 MHZ

 AIRPORT NEAR NAVIGATION AIDS
Type NDB Name Ciampino Frequency 412 KHZ
Type VOR-DME Name Roma Frequency 110800 KHZ